Погода в Саксаганском

Украина / Днепропетровская область     48°22′55″N   34°09′17″E
темп.,
°C
ветер,
м/с
пор.,
м/с
влажн.,
%
обл.,
%
осадки,
мм/ч
давл.,
гПа
погр.,
м
19 сентября, вс
вс1900:00+18ююз7126594 0.2 1008663
03:00+15ююз3891100 11.0 1008350
06:00+16зюз249348 0.1 1007184
09:00+17зсз3475100 0.1 1008436
12:00+22з45505 0.0 10071437
15:00+22зюз5642100 0.0 10061875
18:00+20зюз2351100 0.1 100675
21:00+19зюз5951100 0.1 1007386
20 сентября, пн
пн2000:00+15з477559 0.3 1007281
03:00+11з688211 0.3 1008563
06:00+8зюз497625 0.0 1009702
09:00+11зюз796598 0.0 10101169
12:00+11зюз5863100 0.0 10111312
15:00+13зюз7959100 0.0 10111436
18:00+12з6859100 0.0 10121449
21:00+11з5869100 0.0 1013923
21 сентября, вт
вт2100:00+8зюз488266 0.0 1014251
03:00+9з587888 0.0 1014446
06:00+9з4782100 0.0 1014490
09:00+10зсз567580 0.0 1015665
12:00+10зсз5665100 0.0 1016817
15:00+10зсз7852100 0.0 10161108
18:00+9зсз5754100 0.0 10171198
21:00+7зсз5880100 0.0 1018608
22 сентября, ср
ср2200:00+7зсз5880100 0.0 1018749
03:00+7зсз5871100 0.1 1018577
06:00+7з4665100 0.0 1018690
09:00+8з4564100 0.0 1018661
12:00+9з4460100 0.0 10181154
15:00+10з3454100 0.1 10171205
18:00+9зсз2357100 0.1 1017790
21:00+8сз1166100 0.1 101754
23 сентября, чт
чт2300:00+7з1171100 0.0 101616
03:00+7сз1173100 0.0 101549
06:00+6зсз017878 0.0 101513
09:00+8ссв1069100 0.0 1015403
12:00+9всв116382 0.0 1014856
15:00+10ссз3260100 0.1 1013977
18:00+9сз346793 0.0 1014607
21:00+7сз3675100 0.0 1014253